RH
49 48 47 47 47 46 45 45 44 43 43 42 42 41 41 40 40 40 40 40 40 40 41 41 42 42 43 44 45 46 47 47 48 49 48 48 48 48 47 46 45 43
47 46 45 44 44 43 43 43 43 43 43 42 42 41 41 40 39 39 39 38 38 38 38 37 37 38 37 38 38 38 38 38 38 39 38 38 38 38 38 37 36 36
45 45 45 44 44 43 43 44 43 43 43 43 43 43 42 42 42 41 41 40 39 39 38 38 38 37 37 37 37 36 37 37 36 36 36 36 35 35 35 34 33 33
47 47 47 46 46 47 47 47 47 47 47 47 47 47 46 46 46 45 44 44 43 43 42 42 42 41 41 40 40 39 39 39 39 39 38 38 37 37 37 36 36 35
49 50 50 49 49 50 50 50 51 51 51 52 51 51 51 51 50 49 49 48 48 48 47 47 47 46 46 45 44 44 44 43 43 42 42 41 40 40 40 39 39 38
52 52 52 52 52 52 51 51 52 52 53 53 53 54 53 53 53 52 51 51 50 50 49 49 48 48 47 47 46 46 46 45 45 44 44 43 42 42 42 42 41 40
52 52 53 53 53 53 52 52 52 52 53 53 54 54 54 54 54 54 54 53 52 52 51 50 49 48 48 47 46 46 46 46 45 44 44 43 42 42 41 41 40 40
49 50 51 51 52 53 53 53 53 53 53 52 52 52 52 52 52 52 52 52 52 52 52 51 51 50 49 48 48 49 48 49 48 48 48 46 46 45 44 44 44 43
50 51 52 53 53 54 54 53 53 52 52 51 51 51 51 51 52 52 52 52 52 52 51 51 51 50 50 50 50 51 52 52 52 51 51 50 48 47 45 44 43 41
53 55 56 56 57 57 57 56 56 55 55 54 54 53 52 51 50 49 49 48 47 47 46 46 46 45 44 44 45 46 46 46 46 44 43 42 40 38 36 34 33 31
51 53 54 56 57 57 57 57 56 55 53 51 50 48 47 46 45 44 44 44 44 44 44 43 43 43 42 42 42 43 45 45 44 42 40 39 37 35 34 32 31 30
47 49 50 52 52 53 53 52 52 51 50 50 49 49 49 49 50 50 50 51 50 50 50 49 49 50 50 50 52 53 54 53 52 50 48 46 44 42 40 38 37 36
47 49 50 51 52 52 53 53 54 54 55 56 56 58 59 60 61 61 61 61 61 61 61 62 62 63 63 65 66 66 65 64 63 62 59 56 53 50 47 45 42 41
50 51 53 54 56 59 60 61 62 63 65 66 66 67 67 68 68 69 71 72 74 74 74 75 75 74 74 74 74 72 72 71 70 69 65 61 58 54 50 47 45 43
55 57 59 62 65 67 69 70 70 70 69 68 69 70 70 71 73 75 77 78 78 78 77 77 75 72 71 71 72 73 72 72 71 67 63 59 55 51 48 46 44 43
63 66 68 71 72 73 73 73 72 71 70 69 70 70 70 72 74 74 75 75 75 74 72 70 69 68 69 69 70 70 69 68 66 63 59 57 54 53 51 49 48 46
72 75 76 76 77 77 77 76 75 73 71 70 70 70 71 72 72 72 72 72 72 71 69 69 68 67 67 66 65 64 64 65 66 65 63 61 59 58 56 53 51 48
79 80 81 81 81 82 81 81 80 78 77 76 75 76 76 74 73 72 72 71 71 71 70 70 69 66 66 66 66 66 67 70 72 71 68 64 61 58 54 51 49 45
83 85 87 86 86 87 87 87 87 85 84 84 83 82 79 77 76 75 76 75 75 75 75 74 73 71 72 72 72 71 71 70 69 66 62 59 56 53 50 47 45 41
90 91 92 92 93 94 94 94 92 90 90 89 87 86 84 82 83 83 82 81 80 80 81 80 78 77 76 74 71 68 65 62 60 57 56 55 53 51 49 46 43 40
96 94 94 96 99 100 99 98 96 94 93 92 90 90 90 90 91 90 87 85 84 85 85 83 79 74 71 67 63 60 58 56 56 56 56 56 55 51 48 45 42 39
94 93 94 97 99 100 100 98 98 97 95 93 93 95 96 97 96 92 90 88 87 86 84 80 74 67 63 61 58 57 56 56 58 59 58 58 55 51 48 44 40 37
89 90 92 93 94 95 95 95 95 94 93 93 95 97 98 97 95 93 91 89 86 82 78 74 69 63 59 58 57 57 58 59 61 62 61 59 55 50 46 41 36 32
87 89 90 90 91 92 93 94 94 94 94 95 97 100 100 99 97 94 91 86 81 77 74 71 67 61 58 58 58 59 60 63 64 64 62 58 52 46 41 35 32 31
93 94 94 94 96 97 97 98 97 96 97 99 103 105 105 101 96 92 87 82 78 75 72 69 65 61 60 60 61 61 64 67 67 66 62 54 47 42 38 34 32 32
103 103 103 104 104 103 102 101 99 97 100 104 106 107 104 98 92 87 84 81 77 74 72 69 66 65 64 63 63 66 69 70 69 65 56 48 43 40 38 36 34 34
Wind_Speed
102 102 103 104 105 106 107 108 110 111 112 114 115 116 117 118 119 119 120 121 122 123 124 125 126 127 128 129 130 131 132 133 135 136 137 138 139 140 141 142 143 144
103 104 105 106 106 107 108 109 110 111 113 114 115 116 117 118 119 120 121 122 123 124 125 127 127 129 130 131 132 133 134 135 136 137 139 139 140 141 142 143 144 144
105 105 106 107 108 108 109 110 111 112 113 114 115 116 117 118 119 120 121 122 123 124 125 127 128 129 130 132 133 134 135 136 137 139 140 141 142 143 144 144 145 146
104 105 106 107 107 108 108 109 110 111 111 112 113 114 115 117 118 119 120 121 122 123 124 125 127 128 129 131 132 133 134 135 137 138 140 140 141 142 143 144 144 145
103 104 105 105 105 106 107 107 108 109 109 110 111 113 114 115 116 117 118 119 120 121 122 123 125 126 128 129 130 131 133 134 135 137 137 138 139 140 140 141 142 142
104 104 105 105 105 106 106 106 107 108 108 110 111 112 113 114 115 116 117 118 119 120 121 122 123 125 126 127 128 129 131 132 133 134 135 136 137 137 137 138 139 139
104 105 106 106 106 106 106 107 107 108 109 110 111 112 113 114 115 116 117 118 119 119 120 121 122 124 125 126 127 128 129 130 132 132 133 134 135 135 135 136 137 137
105 106 106 106 107 107 108 108 109 109 110 111 112 112 113 114 115 116 117 117 118 119 120 121 122 123 124 125 126 127 128 130 131 132 133 134 134 134 135 135 136 136
104 105 106 106 107 108 108 109 109 110 110 111 111 112 113 113 114 115 115 116 117 118 118 119 120 121 122 123 124 125 126 128 129 130 131 132 132 133 133 133 133 134
102 103 104 105 106 107 107 108 108 109 109 109 110 110 110 111 111 111 112 112 113 113 114 114 115 115 116 116 117 118 119 121 122 123 124 125 126 126 126 126 126 127
97 99 100 101 102 103 103 104 104 105 105 105 105 105 105 105 105 105 105 105 105 105 105 105 106 106 106 107 107 108 110 111 113 114 115 116 117 117 118 118 118 119
91 92 93 94 95 96 97 97 97 98 98 97 97 97 97 96 96 96 95 96 96 96 96 97 97 98 98 98 99 100 101 103 104 106 107 108 110 110 111 112 112 113
85 86 87 88 88 89 89 90 90 90 90 89 89 88 88 87 87 87 87 87 88 88 89 89 89 90 90 91 92 93 95 96 98 100 101 103 105 106 107 108 109 110
80 80 81 81 81 82 82 82 82 82 82 81 81 80 80 80 80 80 80 80 81 82 82 83 84 85 86 87 88 90 91 93 95 96 99 101 103 104 106 106 107 108
74 74 74 75 75 74 74 75 75 75 75 76 75 76 76 76 76 76 77 77 78 80 81 82 83 85 85 86 87 89 90 92 94 96 98 100 102 103 105 105 106 106
68 68 68 69 69 69 69 70 71 71 72 73 73 73 74 74 75 75 76 78 79 80 82 83 84 85 85 86 87 89 90 92 94 97 98 99 101 102 103 104 105 106
63 64 64 65 65 66 67 68 69 70 71 71 72 73 73 74 75 76 78 79 80 81 82 83 84 85 85 86 88 89 90 92 94 96 98 99 100 101 103 105 106 107
62 63 64 64 65 66 67 68 69 70 71 71 72 73 74 75 77 78 79 80 81 82 83 84 85 85 86 87 88 88 89 90 93 96 99 101 103 105 106 108 109 110
63 64 64 65 65 66 67 69 70 71 71 72 73 74 76 77 78 79 80 81 81 82 83 85 86 86 86 86 87 89 90 91 94 97 100 103 106 108 109 110 111 111
65 65 66 66 67 68 69 70 71 72 73 74 75 76 77 78 79 80 81 81 82 82 84 85 86 86 86 88 89 91 93 94 97 99 102 105 107 109 110 110 111 110
67 68 68 68 69 70 71 72 73 74 75 76 77 78 78 79 80 81 81 81 81 82 84 86 88 89 89 91 92 94 95 97 99 101 103 106 107 108 109 109 108 107
69 69 69 70 71 72 73 74 75 76 77 77 78 79 79 80 80 81 81 82 83 84 86 89 91 92 92 93 95 96 97 99 100 102 104 106 107 107 106 106 105 104
69 69 70 71 72 73 74 75 76 77 77 77 78 78 79 80 81 82 83 84 86 87 89 91 94 94 94 95 97 98 98 99 101 103 104 105 105 104 104 103 102 100
68 68 69 70 71 73 74 75 75 76 76 76 77 78 80 81 83 84 86 87 89 90 91 93 96 97 97 97 98 98 99 100 101 102 103 103 102 101 101 100 98 95
70 70 70 71 71 73 74 75 75 76 77 77 78 80 82 84 85 86 88 90 91 92 94 96 97 99 99 99 99 99 100 100 101 101 101 100 99 98 97 96 94 92
72 73 73 73 74 75 76 77 78 78 79 80 81 83 84 86 87 88 90 92 94 95 97 98 99 100 101 101 100 100 101 101 101 100 99 96 95 94 94 94 92 89
Wind_Direction
272 272 272 272 271 271 271 271 271 271 271 271 271 271 271 271 270 270 270 270 270 270 270 271 271 271 271 271 271 272 272 272 272 272 272 272 273 273 273 273 273 273
273 273 273 273 272 272 272 272 271 271 271 271 271 271 271 271 271 271 271 271 271 271 271 271 271 271 271 271 272 272 272 272 272 272 273 273 273 273 273 273 274 274
274 274 273 273 273 273 273 272 272 272 272 271 271 272 272 271 271 271 271 271 271 272 272 272 272 272 272 272 272 272 272 272 273 273 273 273 273 274 274 274 275 275
274 274 273 273 273 273 273 272 272 272 272 272 272 272 272 272 272 272 272 272 272 272 272 272 272 272 273 273 273 273 273 273 273 273 274 274 274 274 275 275 275 276
275 274 274 274 273 273 273 273 273 273 273 273 273 273 273 273 273 273 273 273 273 273 273 273 273 273 273 273 274 274 274 274 274 274 275 275 275 276 276 276 276 277
275 275 275 274 274 274 274 274 274 274 274 274 274 273 273 273 273 274 274 274 274 274 274 274 274 274 274 274 275 275 275 275 275 276 276 276 276 277 277 277 278 278
275 275 275 275 275 275 275 275 275 275 274 274 274 274 274 274 274 275 275 275 275 275 275 275 275 275 275 275 276 276 276 277 277 277 277 277 278 278 278 278 278 279
275 275 275 275 275 275 275 275 275 275 275 275 275 275 275 275 275 275 275 275 276 276 276 276 276 276 276 276 277 277 277 277 278 278 278 278 278 279 279 279 279 280
275 275 275 275 275 275 276 276 276 276 276 276 276 276 276 276 276 276 276 276 276 276 276 276 276 276 277 277 277 277 277 277 278 278 278 278 279 279 279 279 280 280
274 275 275 275 275 276 276 276 277 277 277 277 277 278 278 278 278 278 278 278 278 278 278 278 278 278 278 278 278 278 278 278 278 279 279 279 279 280 280 280 281 281
275 275 275 275 276 276 277 277 277 278 278 278 278 279 279 279 279 279 279 279 279 279 279 279 279 279 279 279 279 279 279 280 280 280 280 281 281 281 281 282 282 282
275 275 275 276 276 276 277 277 278 278 278 279 279 279 279 279 280 280 279 279 279 279 279 280 280 280 280 280 280 280 281 281 281 281 282 282 282 282 283 283 283 283
276 276 276 276 277 277 277 278 278 279 279 279 279 279 279 279 279 279 279 279 279 280 280 280 280 280 281 281 281 281 281 282 282 283 283 283 283 283 284 284 284 284
278 278 278 278 278 278 279 279 279 279 279 278 279 279 279 279 279 279 279 280 280 280 280 280 280 280 280 281 281 282 283 283 284 284 284 284 284 285 285 285 286 286
280 280 280 279 279 279 279 278 278 278 278 278 278 279 279 279 279 280 280 280 280 280 280 280 280 281 282 283 284 284 285 286 286 286 286 286 287 287 287 287 288 288
281 281 280 280 280 279 279 279 279 279 279 279 279 280 280 280 280 281 281 281 281 281 282 282 283 284 285 286 286 287 287 288 288 288 288 289 289 289 290 289 289 289
283 283 282 282 282 282 281 281 281 281 281 281 281 281 281 282 282 282 283 283 284 284 285 286 286 287 287 287 288 288 289 290 290 291 291 291 291 291 290 290 290 290
285 285 284 284 284 283 283 282 282 282 283 283 283 283 284 284 284 285 285 286 287 287 287 288 288 288 289 289 289 290 291 291 292 292 292 292 292 292 291 291 291 290
287 287 286 286 285 285 284 284 284 284 284 285 285 285 286 286 287 287 288 288 288 288 289 289 289 289 290 291 291 291 292 292 292 292 293 293 293 292 292 292 291 291
288 287 287 287 286 286 285 285 285 285 285 286 286 287 287 288 288 288 288 288 289 289 290 290 290 291 291 292 292 292 293 293 293 293 294 293 293 293 292 292 292 292
288 288 287 287 286 286 285 285 285 286 286 286 287 287 288 288 288 289 289 289 290 291 291 291 292 292 293 293 293 294 294 295 295 295 294 294 293 293 293 293 293 293
288 287 287 286 285 285 285 285 285 286 286 287 287 288 288 289 289 289 290 290 291 291 292 292 292 293 294 294 295 295 295 296 296 296 295 295 294 294 294 293 293 293
289 288 286 286 285 285 285 285 285 286 287 287 288 288 288 289 289 290 290 291 292 292 293 293 293 294 295 295 296 296 297 297 297 297 296 295 295 295 295 294 294 293
290 289 288 287 286 286 286 286 286 287 287 288 288 288 289 289 290 290 291 292 292 293 293 294 294 295 295 296 297 297 298 298 298 297 297 296 297 296 296 295 294 294
291 290 289 289 288 287 287 287 287 287 288 288 288 289 289 289 290 291 291 292 292 293 293 294 294 295 296 297 298 299 299 299 298 298 297 298 298 298 296 295 295 295
290 290 289 289 288 288 287 287 287 288 288 288 288 289 289 289 290 291 291 292 292 293 294 294 295 297 298 299 299 300 300 299 299 298 299 299 299 298 297 296 296 296